[[{"header":{"parameterUnit":"m.s-1","parameterCategory":1,"la1":30.2991,"la2":30.254,"lo1":-89.0895,"lo2":-89.0444,"dy":0.0017,"dx":0.0017,"nx":28,"ny":28,"refTime":"2025-09-06T09:00:00:Z","depth":0,"parameterNumber":2,"parameterNumberName":"U-component_of_WINDS"},"data":[0,0,0,0,0,0,0,0,0,0,0,0,0,0,0,0,0,0,0,0,0,0,0,0,0,0,0,0,0,0,0,0,0,0,0,0,0,0,0,0,0,0,0,0,0,0,0,0,0,0,0,0,0,0,0,0,0,0,2.2461,2.2462,0,2.2599,2.2601,2.2602,2.2645,2.2645,2.2644,2.2643,2.2777,2.2781,2.2785,0,0,0,0,0,0,0,0,0,0,0,0,0,2.2227,2.2231,2.2461,2.2463,2.2464,2.2599,2.2601,2.2603,2.2645,2.2645,2.2644,2.2643,2.2776,2.2781,2.2786,0,0,0,0,0,0,0,0,0,0,0,0,0,2.2343,2.2232,2.2461,2.2502,2.2507,2.2599,2.2601,2.2603,2.2645,2.2644,2.2644,2.2643,2.2774,2.278,2.2786,2.2844,0,0,2.2806,2.2808,0,0,0,0,0,0,0,0,2.2336,2.2351,2.2494,2.2499,2.2505,2.2604,2.2568,2.2684,2.2646,2.2593,2.2643,2.2642,2.272,2.2731,2.2758,2.2851,2.2856,2.2806,2.281,2.2813,2.2814,0,0,0,0,0,0,0,2.2328,2.2346,2.2515,2.2496,2.2503,2.2511,2.2527,2.259,2.266,2.2597,2.2601,2.2617,2.2723,2.2752,2.2762,2.2858,2.2806,2.2812,2.2815,2.2818,2.3005,2.3006,0,0,0,0,0,0,2.2314,2.2339,2.2511,2.2519,2.2417,2.2516,2.2534,2.2573,2.2659,2.2672,2.2618,2.2618,2.2742,2.2754,2.2767,2.284,2.2813,2.2818,2.2822,2.3004,2.3005,2.3006,0,0,0,0,0,0,2.2309,2.2329,2.2505,2.243,2.2453,2.2522,2.2565,2.2576,2.2606,2.2675,2.2687,2.2635,2.2742,2.2758,2.2825,2.2845,2.2821,2.2827,2.3002,2.3004,2.3006,2.2987,0,0,0,0,0,0,2.2302,2.2327,2.2351,2.2431,2.2457,2.2564,2.2567,2.258,2.2618,2.262,2.2695,2.2706,2.2742,2.2816,2.2831,2.2853,2.2832,2.3001,2.3003,2.3005,2.2986,2.2988,2.2989,0,0,0,0,0,2.2293,2.2339,2.2352,2.2373,2.2489,2.2565,2.258,2.2623,2.2619,2.2643,2.2687,2.2704,2.2841,2.2822,2.284,2.2864,2.2999,2.3002,2.3005,2.2985,2.2987,2.2989,0,0,0,0,0,0,2.2257,2.235,2.2366,2.2439,2.2494,2.2572,2.2603,2.2624,2.2679,2.2679,2.2727,2.2744,2.2807,2.2843,2.282,2.2925,2.2921,2.2927,2.2899,2.2902,2.2904,2.2893,2.2837,0,0,0,0,0,2.2258,2.2314,2.2391,2.2447,2.2475,2.2534,2.2568,2.2597,2.2655,2.2678,2.2727,2.2781,2.2836,2.2871,2.2926,2.2992,2.3008,2.3017,2.3019,2.302,2.3024,2.3061,2.3066,2.3015,2.3015,2.3015,0,0,2.2259,2.2317,2.2348,2.2442,2.2488,2.2542,2.2553,2.261,2.2651,2.2686,2.2753,2.2791,2.2854,2.2921,2.2953,2.2952,2.3042,2.3023,2.3024,2.3028,2.3065,2.3069,2.3074,2.3017,2.3017,2.3017,0,0,2.2289,2.2339,2.2392,2.2439,2.251,2.2549,2.2562,2.2638,2.2665,2.2734,2.2761,2.2809,2.2903,2.2947,2.2982,2.303,2.3047,2.3046,2.3054,2.309,2.3094,2.3098,2.3114,2.3119,2.3051,2.3051,2.3051,0,2.2281,2.2367,2.2416,2.2473,2.2512,2.2549,2.2602,2.2644,2.2728,2.2753,2.2752,2.2872,2.2917,2.2995,2.3007,2.3034,2.3048,2.3037,2.309,2.3094,2.3098,2.3114,2.312,2.305,2.305,2.305,2.305,0,2.2353,2.2412,2.2446,2.2529,2.2573,2.2626,2.2681,2.2719,2.2744,2.2783,2.2852,2.2908,2.2974,2.2995,2.3019,2.3076,2.3074,2.3081,2.3077,2.3102,2.3118,2.3124,2.3049,2.305,2.305,2.305,0,0,2.2363,2.2474,2.2485,2.2524,2.2605,2.2651,2.2706,2.2774,2.2804,2.2861,2.2907,2.2987,2.2995,2.3034,2.3063,2.3094,2.3128,2.3098,2.31,2.3101,2.3193,2.3187,2.3193,2.3141,2.3142,2.3143,2.3188,0,2.2403,2.2506,2.2552,2.2633,2.2688,2.2724,2.2772,2.2826,2.2864,2.2914,2.2955,2.3011,2.3017,2.3041,2.3074,2.3117,2.3147,2.3115,2.3182,2.3184,2.3164,2.3202,2.3195,2.3234,2.3194,2.3195,2.3196,0,2.2463,2.2523,2.2611,2.2687,2.2711,2.2753,2.2819,2.2867,2.2929,2.2954,2.2999,2.3027,2.3084,2.3078,2.3157,2.3134,2.3164,2.319,2.3192,2.3199,2.319,2.3208,2.3248,2.3253,2.3206,2.3206,2.3205,0,2.2461,2.2563,2.2629,2.266,2.275,2.2779,2.2817,2.2878,2.2916,2.2973,2.2998,2.306,2.3093,2.3139,2.3183,2.3175,2.3257,2.3255,2.3278,2.3277,2.3292,2.3291,2.3336,2.3314,2.3314,2.3314,2.3313,0,2.25,2.2552,2.2629,2.2669,2.2728,2.2779,2.2835,2.2875,2.2929,2.2976,2.3011,2.3054,2.311,2.3159,2.3194,2.3253,2.3268,2.3289,2.3297,2.3285,2.3282,2.3304,2.3302,2.3315,2.3315,2.3315,2.3314,0,2.2506,2.256,2.2634,2.2714,2.2736,2.2775,2.2842,2.2882,2.2922,2.2981,2.2998,2.306,2.3121,2.3169,2.3247,2.327,2.3332,2.3342,2.3312,2.3316,2.3336,2.3333,2.3397,2.3407,2.3378,2.3379,2.3379,0,2.2527,2.2568,2.2654,2.2689,2.2728,2.2784,2.2824,2.2876,2.2915,2.2989,2.3019,2.3082,2.3136,2.3229,2.328,2.334,2.3351,2.3369,2.336,2.3347,2.335,2.3346,2.335,2.3369,2.3369,2.3369,2.3369,0,2.2559,2.2584,2.2641,2.2708,2.2755,2.2809,2.2864,2.2891,2.2952,2.2994,2.3058,2.3099,2.318,2.3242,2.3308,2.3344,2.3366,2.3372,2.3381,2.3368,2.3349,2.3359,2.3313,2.337,2.337,2.337,2.337,2.337,2.2572,2.2611,2.2677,2.274,2.2787,2.2838,2.2879,2.2926,2.2981,2.3052,2.3079,2.3143,2.3203,2.3294,2.3332,2.3381,2.3383,2.3396,2.3398,2.34,2.3399,2.3342,2.3393,2.3393,2.3394,2.3394,2.3394,0,2.2605,2.265,2.2707,2.2784,2.2833,2.2853,2.2915,2.2954,2.3011,2.3067,2.3119,2.3192,2.3252,2.3308,2.3371,2.34,2.3412,2.3414,2.3412,2.342,2.3394,2.338,2.3404,2.3404,2.3404,2.3404,2.3404,2.3404,2.2627,2.2693,2.2726,2.2815,2.2859,2.2925,2.2959,2.3005,2.305,2.313,2.3182,2.3219,2.3274,2.3341,2.3397,2.3412,2.3433,2.3433,2.345,2.3424,2.3422,2.342,2.3407,2.3437,2.3437,2.3472,2.3472,2.3473]},{"header":{"parameterUnit":"m.s-1","parameterCategory":1,"la1":30.2991,"la2":30.254,"lo1":-89.0895,"lo2":-89.0444,"dy":0.0017,"dx":0.0017,"nx":28,"ny":28,"refTime":"2025-09-06T09:00:00:Z","depth":0,"parameterNumber":3,"parameterNumberName":"V-component_of_WINDS"},"data":[0,0,0,0,0,0,0,0,0,0,0,0,0,0,0,0,0,0,0,0,0,0,0,0,0,0,0,0,0,0,0,0,0,0,0,0,0,0,0,0,0,0,0,0,0,0,0,0,0,0,0,0,0,0,0,0,0,0,-2.3494,-2.3493,0,-2.3378,-2.3377,-2.3375,-2.3372,-2.3373,-2.3374,-2.3376,-2.3245,-2.3241,-2.3236,0,0,0,0,0,0,0,0,0,0,0,0,0,-2.3703,-2.3699,-2.3494,-2.3493,-2.3491,-2.3378,-2.3377,-2.3375,-2.3371,-2.3373,-2.3375,-2.3376,-2.3247,-2.3241,-2.3235,0,0,0,0,0,0,0,0,0,0,0,0,0,-2.3602,-2.3698,-2.3494,-2.3476,-2.3473,-2.3379,-2.3377,-2.3375,-2.3371,-2.3373,-2.3375,-2.3377,-2.3249,-2.3242,-2.3235,-2.3147,0,0,-2.3213,-2.3209,0,0,0,0,0,0,0,0,-2.3608,-2.3594,-2.348,-2.3477,-2.3474,-2.3392,-2.3403,-2.3298,-2.337,-2.3409,-2.3376,-2.3378,-2.3291,-2.3281,-2.3254,-2.3141,-2.3135,-2.3212,-2.3207,-2.3204,-2.3202,0,0,0,0,0,0,0,-2.3615,-2.3599,-2.3448,-2.3479,-2.3475,-2.3471,-2.3459,-2.3383,-2.3339,-2.3406,-2.3406,-2.3393,-2.329,-2.3261,-2.3251,-2.3133,-2.3212,-2.3206,-2.3201,-2.3198,-2.2942,-2.2939,0,0,0,0,0,0,-2.3627,-2.3605,-2.3452,-2.3444,-2.3548,-2.3465,-2.3452,-2.3416,-2.334,-2.3331,-2.3391,-2.3393,-2.3272,-2.3259,-2.3246,-2.3137,-2.3204,-2.3198,-2.3194,-2.2944,-2.2941,-2.2939,0,0,0,0,0,0,-2.3631,-2.3613,-2.3456,-2.3525,-2.3505,-2.3459,-2.3419,-2.3412,-2.3383,-2.3329,-2.332,-2.337,-2.3273,-2.3256,-2.3172,-2.3133,-2.3194,-2.3188,-2.2947,-2.2943,-2.294,-2.292,0,0,0,0,0,0,-2.3638,-2.3615,-2.3583,-2.3524,-2.3501,-2.3387,-2.3417,-2.3409,-2.3372,-2.3374,-2.3307,-2.3297,-2.3274,-2.3183,-2.3165,-2.3124,-2.3182,-2.295,-2.2946,-2.2941,-2.2924,-2.2916,-2.2909,0,0,0,0,0,-2.3645,-2.3579,-2.3581,-2.3563,-2.3461,-2.3385,-2.3371,-2.3348,-2.3369,-2.3335,-2.3301,-2.33,-2.3142,-2.3175,-2.3154,-2.311,-2.2953,-2.2947,-2.2941,-2.2927,-2.2917,-2.2909,0,0,0,0,0,0,-2.3629,-2.3571,-2.3573,-2.3487,-2.3441,-2.3384,-2.334,-2.3339,-2.3283,-2.3286,-2.3258,-2.3243,-2.3159,-2.3127,-2.3165,-2.3022,-2.3049,-2.3039,-2.3045,-2.3035,-2.3028,-2.3035,-2.3176,0,0,0,0,0,-2.3617,-2.3564,-2.3514,-2.3443,-2.3421,-2.3385,-2.3351,-2.3338,-2.3288,-2.3267,-2.3227,-2.3175,-2.3114,-2.3074,-2.3014,-2.2921,-2.2905,-2.2881,-2.2874,-2.2868,-2.2858,-2.2805,-2.2793,-2.292,-2.292,-2.292,0,0,-2.3588,-2.355,-2.3517,-2.3439,-2.3402,-2.3344,-2.3368,-2.3306,-2.3261,-2.3257,-2.3175,-2.3144,-2.3085,-2.2996,-2.2954,-2.2966,-2.2821,-2.2861,-2.2857,-2.285,-2.2798,-2.2786,-2.2776,-2.2917,-2.2917,-2.2918,0,0,-2.3506,-2.3473,-2.341,-2.3375,-2.3321,-2.3298,-2.3283,-2.3227,-2.3207,-2.3127,-2.3122,-2.3069,-2.2964,-2.2922,-2.2887,-2.2794,-2.279,-2.2775,-2.2735,-2.2684,-2.2674,-2.2665,-2.2629,-2.2617,-2.2767,-2.2767,-2.2767,0,-2.3475,-2.3392,-2.3377,-2.3315,-2.328,-2.328,-2.3214,-2.3178,-2.3106,-2.308,-2.3097,-2.2967,-2.2927,-2.2827,-2.2805,-2.2778,-2.2757,-2.278,-2.2678,-2.2668,-2.2659,-2.2625,-2.2611,-2.2765,-2.2765,-2.2765,-2.2766,0,-2.3356,-2.3298,-2.3253,-2.3189,-2.3149,-2.3085,-2.3058,-2.302,-2.3012,-2.2987,-2.2904,-2.2858,-2.2789,-2.2765,-2.2755,-2.2664,-2.2674,-2.2684,-2.271,-2.2646,-2.2613,-2.2599,-2.2763,-2.2763,-2.2764,-2.2764,0,0,-2.3254,-2.3187,-2.317,-2.3141,-2.3084,-2.3037,-2.2974,-2.2911,-2.2877,-2.2829,-2.2772,-2.2687,-2.2697,-2.2657,-2.2643,-2.2599,-2.2526,-2.2615,-2.2613,-2.2597,-2.242,-2.241,-2.2395,-2.2526,-2.2523,-2.2521,-2.2424,0,-2.3163,-2.3054,-2.3041,-2.2942,-2.2887,-2.2888,-2.2832,-2.279,-2.2766,-2.2714,-2.2686,-2.2625,-2.2645,-2.2621,-2.2578,-2.2544,-2.2489,-2.2551,-2.2468,-2.2466,-2.2479,-2.2378,-2.2366,-2.2276,-2.2412,-2.2409,-2.2408,0,-2.3041,-2.2994,-2.2891,-2.2843,-2.282,-2.277,-2.2712,-2.2664,-2.2616,-2.2601,-2.256,-2.2552,-2.2484,-2.2518,-2.2421,-2.2464,-2.243,-2.2409,-2.2405,-2.2392,-2.2429,-2.2358,-2.2247,-2.2232,-2.2388,-2.2389,-2.2391,0,-2.2973,-2.2884,-2.2811,-2.2787,-2.273,-2.2695,-2.2669,-2.2624,-2.2588,-2.2537,-2.2512,-2.2453,-2.2419,-2.2372,-2.2347,-2.2375,-2.2252,-2.2284,-2.2234,-2.2235,-2.2203,-2.2205,-2.2081,-2.2189,-2.219,-2.219,-2.219,0,-2.287,-2.2806,-2.2781,-2.2735,-2.2663,-2.2649,-2.2577,-2.2552,-2.2512,-2.2459,-2.2457,-2.2407,-2.238,-2.2326,-2.2306,-2.2228,-2.2214,-2.2197,-2.2192,-2.2195,-2.2196,-2.2168,-2.2172,-2.2186,-2.2187,-2.2188,-2.2188,0,-2.2779,-2.276,-2.268,-2.2636,-2.2623,-2.2572,-2.2532,-2.2486,-2.2466,-2.2399,-2.2383,-2.2348,-2.2284,-2.2258,-2.2177,-2.2165,-2.2074,-2.2075,-2.2091,-2.2088,-2.2039,-2.2042,-2.1889,-2.1867,-2.1994,-2.1993,-2.1992,0,-2.2712,-2.2663,-2.2616,-2.2583,-2.2557,-2.2503,-2.2468,-2.2453,-2.2415,-2.2359,-2.2319,-2.2257,-2.2205,-2.2103,-2.2068,-2.2007,-2.2004,-2.1955,-2.1994,-2.1999,-2.1999,-2.2,-2.1994,-2.1946,-2.1944,-2.1943,-2.1943,0,-2.2593,-2.2588,-2.2539,-2.2488,-2.2447,-2.2404,-2.2363,-2.2335,-2.2313,-2.2271,-2.2208,-2.2169,-2.209,-2.2027,-2.1965,-2.1934,-2.1933,-2.1932,-2.1916,-2.1916,-2.1926,-2.1916,-2.2066,-2.1934,-2.1934,-2.1935,-2.1936,-2.1936,-2.2509,-2.2467,-2.2427,-2.2373,-2.2342,-2.2304,-2.226,-2.2236,-2.2185,-2.2122,-2.2116,-2.2048,-2.2002,-2.1919,-2.1888,-2.1832,-2.1843,-2.1822,-2.1815,-2.1809,-2.1804,-2.194,-2.1821,-2.1821,-2.1821,-2.1821,-2.1822,0,-2.2388,-2.2364,-2.2315,-2.226,-2.2217,-2.2228,-2.2183,-2.2145,-2.2086,-2.2046,-2.1998,-2.1925,-2.1865,-2.1828,-2.1767,-2.1729,-2.1727,-2.1713,-2.1713,-2.1705,-2.1799,-2.1817,-2.1716,-2.1716,-2.1716,-2.1716,-2.1716,-2.1716,-2.2319,-2.2247,-2.2238,-2.215,-2.2125,-2.2062,-2.2035,-2.2,-2.1968,-2.1889,-2.184,-2.1819,-2.1779,-2.1716,-2.166,-2.1651,-2.1626,-2.1611,-2.1601,-2.1688,-2.1699,-2.1709,-2.1725,-2.1607,-2.1607,-2.1512,-2.1511,-2.151]}]]